Regional Weather Roundup
Issued by NWS Cleveland, OH

Home | Current Version | Previous Version | Graphics & Text | Print | Product List | Glossary On
Versions: 1 2 3 4 5 6 7 8 9 10 11 12 13 14 15 16 17 18 19 20 21 22 23 24 25 26 27 28 29 30 31 32 33 34 35 36 37 38 39 40 41 42 43 44 45 46 47 48 49 50
000
ASUS41 KCLE 280902
RWRCLE
OHIO REGIONAL WEATHER ROUNDUP
NATIONAL WEATHER SERVICE CLEVELAND, OH
500 AM EDT SAT MAR 28 2015

NOTE: "FAIR" INDICATES FEW OR NO CLOUDS BELOW 12,000 FEET WITH NO
SIGNIFICANT WEATHER AND/OR OBSTRUCTIONS TO VISIBILITY.

OHZ001>008-015>018-024>027-034-035-043-044-281000-
   NORTHWEST OHIO

CITY           SKY/WX    TMP DP  RH WIND       PRES   REMARKS
DEFIANCE       CLEAR     18   8  65 N7        30.19S WCI   9
FINDLAY        PTCLDY    18   7  62 N10       30.15S WCI   6
TOLEDO EXPRESS CLEAR     15   7  70 N5        30.17S WCI   8
TOLEDO EXEC    CLOUDY    19   6  57 N8        30.19R WCI   9
LIMA           FLURRIES  20  13  74 NE9       30.14R WCI   9
$$

OHZ009>014-019>023-028>033-038-089-281000-
   NORTHEAST OHIO

CITY           SKY/WX    TMP DP  RH WIND       PRES   REMARKS
CLE-HOPKINS    PTCLDY    16   6  65 N9        30.13S WCI   4
CLE-LAKEFRONT  CLEAR     18  10  71 N10       30.11S WCI   6
CUY CO. ARPT   NOT AVBL
LORAIN-ELYRIA  CLEAR     15   5  64 N7        30.12S WCI   5
ASHTABULA      CLOUDY    15   7  70 N7        30.06S WCI   5
AKRON-CANTON   PTCLDY    15   4  61 N12       30.05S WCI   2
WOOSTER        MOCLDY    16   7  67 N14       30.08S WCI   2
MANSFIELD      CLOUDY    10   6  84 NW7       30.08S WCI  -1
YOUNGSTOWN     LGT SNOW  15  10  80 NW9       30.02S FOG     WCI   3
$$

OHZ042-051>053-060>062-070>072-077>081-281000-
  SOUTHWEST OHIO

CITY           SKY/WX    TMP DP  RH WIND       PRES   REMARKS
CINC-COVINGTON CLEAR     21  13  71 N10       30.13R WCI  10
CINC-LUNKEN    CLEAR     22  14  71 N8        30.17R WCI  12
HAMILTON       CLEAR     21  14  74 NW8       30.16R WCI  11
DAYTON         CLEAR     20  14  77 N6        30.14R WCI  12
WRIGHT-PAT AFB CLEAR     20  13  73 N6        30.13R WCI  13
DAYTON GENERAL CLEAR     20  15  81 N7        30.11S WCI  11
WILMINGTON     CLEAR     19  13  77 N6        30.11R WCI  11
$$

OHZ036-037-039>041-045>050-054>059-063>069-073>076-082>088-281000-
  CENTRAL AND SOUTHEAST OHIO

CITY           SKY/WX    TMP DP  RH WIND       PRES   REMARKS
COLUMBUS       MOCLDY    19  12  74 N9        30.12R WCI   8
OSU AIRPORT    CLOUDY    19  13  77 N8        30.12R WCI   9
BOLTON FIELD   CLOUDY   N/A N/A N/A N9        30.13R
RICKENBACK AFB NOT AVBL
NEWARK         PTCLDY    15   9  76 NW5       30.10R WCI   8
MARION         PTCLDY    16   8  71 N9        30.13R WCI   4
LANCASTER      MOCLDY    21  16  81 N8        30.11R WCI  11
ZANESVILLE     CLEAR     17   7  64 N8        30.08R WCI   7
NEW PHILLY     PTCLDY    18   5  57 NW12G21   30.09R WCI   5
$$


USA.gov is the U.S. government's official web portal to all federal, state and local government web resources and services.